Regional Weather Roundup
Issued by NWS Little Rock, AR

Home | Current Version | Previous Version | Text Only | Print | Product List | Glossary Off
Versions: 1 2 3 4 5 6 7 8 9 10 11 12 13 14 15 16 17 18 19 20 21 22 23 24 25 26 27 28 29 30 31 32 33 34 35 36 37 38 39 40 41 42 43 44 45 46 47 48 49 50

000
ASUS44 KLZK 271005
RWRLZK

WEATHER ROUNDUP FOR ARKANSAS
NATIONAL WEATHER SERVICE LITTLE ROCK AR
500 AM CDT WED AUG 27 2014

NOTE: "FAIR" INDICATES FEW OR NO CLOUDS BELOW 12,000 FEET WITH NO
SIGNIFICANT WEATHER AND/OR OBSTRUCTIONS TO VISIBILITY.

ARZ001-003-010-029-271100-
NORTHWEST ARKANSAS

CITY           SKY/WX    TMP DP  RH WIND       PRES   REMARKS
FAYETTEVILLE   CLEAR     68  68 100 CALM      30.11F
FORT SMITH     CLEAR     76  72  87 CALM      30.06F
HARRISON       CLEAR     70  69  97 CALM      30.11F FOG
BENTONVILLE    CLEAR     72  66  83 CALM      30.12F
ROGERS         CLEAR     73  67  81 CALM      30.12F
SILOAM SPGS    CLEAR     72  63  73 E3        30.12S
HIGHFILL       CLEAR     70  66  87 CALM      30.11F
$$

ARZ004-005-016-271100-
NORTH CENTRAL ARKANSAS

CITY           SKY/WX    TMP DP  RH WIND       PRES   REMARKS
BATESVILLE     PTCLDY    72  70  94 CALM      30.07R
FLIPPIN        CLEAR     72  64  78 CALM      30.09R
MTN HOME       CLEAR     72  69  90 CALM      30.09R
$$

ARZ040-041-271100-
WEST CENTRAL ARKANSAS

CITY           SKY/WX    TMP DP  RH WIND       PRES   REMARKS
MENA           CLEAR     72  70  94 CALM      30.10R
MOUNT IDA      CLEAR     71  69  93 CALM      30.06S FOG
$$

ARZ009-017-025-026-028-271100-
NORTHEAST ARKANSAS

CITY           SKY/WX    TMP DP  RH WIND       PRES   REMARKS
CORNING          N/A     73  73 100 CALM      30.07S FOG
JONESBORO      CLEAR     72  70  93 CALM      30.06S
NEWPORT        CLEAR     76  74  93 CALM      30.07S
WALNUT RIDGE   CLEAR     73  66  78 CALM      30.05F
BLYTHEVILLE    CLEAR     73  71  93 CALM      30.06S
$$

ARZ022-023-033-042-044-271100-
CENTRAL ARKANSAS

CITY           SKY/WX    TMP DP  RH WIND       PRES   REMARKS
LITTLE ROCK    PTCLDY    78  73  84 CALM      30.05S
N LITTLE ROCK    N/A     77  74  90 NW2       30.05S
JACKSONVILLE   PTCLDY    75  73  95 CALM      30.06R
SEARCY         FOG       73  73 100 CALM      30.07R VSB 3/4
HOT SPRINGS    CLEAR     74  71  91 CALM      30.07S
RUSSELLVILLE   CLEAR     73  71  93 CALM      30.06S FOG
CLINTON        FAIR      72  72 100 CALM      30.08R FOG
$$

ARZ036-271100-
EAST ARKANSAS

CITY           SKY/WX    TMP DP  RH WIND       PRES   REMARKS
WEST MEMPHIS   CLEAR     72  72 100 CALM      30.05S
$$

ARZ050-053-066-070-073-271100-
SOUTHWEST ARKANSAS

CITY           SKY/WX    TMP DP  RH WIND       PRES   REMARKS
ARKADELPHIA    FAIR      72  72 100 CALM      30.06R FOG
CAMDEN         CLEAR     68  66  94 CALM      30.04S FOG
TEXARKANA      CLEAR     72  71  97 CALM      30.05R FOG
EL DORADO      PTCLDY    69  68  96 CALM      30.04S
DE QUEEN       CLEAR     71  70  96 CALM      30.04S FOG
$$

ARZ056-057-069-271100-
SOUTHEAST ARKANSAS

CITY           SKY/WX    TMP DP  RH WIND       PRES   REMARKS
PINE BLUFF     PTCLDY    72  71  97 CALM      30.05S
STUTTGART      PTCLDY    75  70  83 NE5       30.06R
MONTICELLO     PTCLDY    72  67  84 CALM      30.04S

$$




USA.gov is the U.S. government's official web portal to all federal, state and local government web resources and services.